Tracking 25995 objects as of 20-Aug-2022
HD Live streaming from Space Station
objects crossing your sky now

THOR ABLESTAR DEB

Track THOR ABLESTAR DEB now!
10-day predictions


NORAD ID: 479
Int'l Code: 1961-015FR
Perigee: 498.1 km
Apogee: 521.6 km
Inclination: 66.7 °
Period: 94.7 minutes
Semi major axis: 6880 km
RCS: 0.0495 m2 (small)
Launch date: June 29, 1961
Source: United States (US)
Launch site: AIR FORCE EASTERN TEST RANGE (AFETR)

Note: This is SATELLITE DEBRIS
aabbcc
Your satellite tracking list
Your tracking list is empty




NASA's NSSDC Master Catalog

Two Line Element Set (TLE):
1 00479U 61015FR  22231.30049704  .00078165  00000-0  34642-2 0  9998
2 00479  66.6650 200.2652 0017087 233.3751 126.5822 15.21036923162372
Source of the keplerian elements: AFSPC